Time,TemperatureF,DewpointF,PressureIn,WindDirection,WindDirectionDegrees,WindSpeedMPH,WindSpeedGustMPH,Humidity,HourlyPrecipIn,Conditions,Clouds,dailyrainin,SoftwareType,DateUTC
2014-03-09 00:12:00,38.0,34.0,30.30,NE,38,3.0,7.0,84,0.00,,,0.00,,2014-03-09 06:12:00,
2014-03-09 00:22:00,38.0,33.0,30.30,North,11,3.0,10.0,81,0.00,,,0.00,,2014-03-09 06:22:00,
2014-03-09 00:42:00,37.0,32.0,30.31,NE,35,1.0,7.0,81,0.00,,,0.00,,2014-03-09 06:42:00,
2014-03-09 00:52:00,37.0,31.0,30.31,NNE,15,3.0,9.0,78,0.00,,,0.00,,2014-03-09 06:52:00,
2014-03-09 01:12:00,36.0,30.0,30.31,NNW,342,2.0,6.0,79,0.00,,,0.00,,2014-03-09 07:12:00,
2014-03-09 01:21:00,36.0,30.0,30.31,ENE,60,4.0,8.0,79,0.00,,,0.00,,2014-03-09 07:21:00,
2014-03-09 01:42:00,35.0,29.0,30.32,NE,42,2.0,6.0,79,0.00,,,0.00,,2014-03-09 07:42:00,
2014-03-09 01:52:00,35.0,29.0,30.32,NE,51,2.0,7.0,78,0.00,,,0.00,,2014-03-09 07:52:00,
2014-03-09 03:12:00,35.0,29.0,30.32,NE,51,1.0,4.0,78,0.00,,,0.00,,2014-03-09 08:12:00,
2014-03-09 03:22:00,34.0,28.0,30.32,NNE,12,0.0,3.0,79,0.00,,,0.00,,2014-03-09 08:22:00,
2014-03-09 03:42:00,34.0,29.0,30.34,NW,323,1.0,3.0,82,0.00,,,0.00,,2014-03-09 08:42:00,
2014-03-09 03:52:00,34.0,29.0,30.33,North,350,1.0,3.0,83,0.00,,,0.00,,2014-03-09 08:52:00,
2014-03-09 04:11:00,33.0,28.0,30.32,NE,37,1.0,3.0,83,0.00,,,0.00,,2014-03-09 09:11:00,
2014-03-09 04:22:00,33.0,28.0,30.32,North,5,1.0,3.0,83,0.00,,,0.00,,2014-03-09 09:22:00,
2014-03-09 04:43:00,33.0,28.0,30.32,NE,34,2.0,5.0,83,0.00,,,0.00,,2014-03-09 09:43:00,
2014-03-09 04:53:00,33.0,28.0,30.33,North,360,2.0,5.0,83,0.00,,,0.00,,2014-03-09 09:53:00,
2014-03-09 05:12:00,33.0,28.0,30.33,ENE,60,1.0,5.0,83,0.00,,,0.00,,2014-03-09 10:12:00,
2014-03-09 05:23:00,32.0,27.0,30.34,NNE,19,0.0,3.0,82,0.00,,,0.00,,2014-03-09 10:23:00,
2014-03-09 05:43:00,32.0,27.0,30.35,NNE,21,0.0,3.0,83,0.00,,,0.00,,2014-03-09 10:43:00,
2014-03-09 05:53:00,32.0,27.0,30.35,NE,39,0.0,3.0,83,0.00,,,0.00,,2014-03-09 10:53:00,
2014-03-09 06:11:00,31.0,26.0,30.35,NE,40,0.0,1.0,83,0.00,,,0.00,,2014-03-09 11:11:00,
2014-03-09 06:22:00,31.0,27.0,30.35,NE,40,0.0,0.0,85,0.00,,,0.00,,2014-03-09 11:22:00,
2014-03-09 06:42:00,31.0,27.0,30.36,NE,40,0.0,0.0,85,0.00,,,0.00,,2014-03-09 11:42:00,
2014-03-09 06:52:00,30.0,26.0,30.36,NE,40,0.0,0.0,85,0.00,,,0.00,,2014-03-09 11:52:00,
2014-03-09 07:12:00,30.0,27.0,30.36,NE,40,0.0,0.0,87,0.00,,,0.00,,2014-03-09 12:12:00,
2014-03-09 07:22:00,29.0,26.0,30.36,NE,40,0.0,0.0,87,0.00,,,0.00,,2014-03-09 12:22:00,
2014-03-09 07:42:00,29.0,26.0,30.36,NE,40,0.0,0.0,88,0.00,,,0.00,,2014-03-09 12:42:00,
2014-03-09 07:52:00,28.0,25.0,30.36,NE,40,0.0,0.0,88,0.00,,,0.00,,2014-03-09 12:52:00,
2014-03-09 08:11:00,28.0,25.0,30.37,NE,40,0.0,0.0,89,0.00,,,0.00,,2014-03-09 13:11:00,
2014-03-09 08:22:00,28.0,25.0,30.37,NE,40,0.0,0.0,89,0.00,,,0.00,,2014-03-09 13:22:00,
2014-03-09 08:42:00,29.0,26.0,30.37,NE,43,0.0,2.0,89,0.00,,,0.00,,2014-03-09 13:42:00,
2014-03-09 08:52:00,32.0,29.0,30.37,NE,52,0.0,1.0,87,0.00,,,0.00,,2014-03-09 13:52:00,
2014-03-09 09:22:00,34.0,28.0,30.38,ENE,68,1.0,4.0,80,0.00,,,0.00,,2014-03-09 14:22:00,
2014-03-09 09:42:00,34.0,28.0,30.38,East,79,1.0,4.0,78,0.00,,,0.00,,2014-03-09 14:42:00,
2014-03-09 09:52:00,35.0,29.0,30.38,NE,50,2.0,6.0,77,0.00,,,0.00,,2014-03-09 14:52:00,
2014-03-09 10:11:00,36.0,28.0,30.38,ENE,63,1.0,6.0,73,0.00,,,0.00,,2014-03-09 15:11:00,
2014-03-09 10:22:00,37.0,29.0,30.37,ENE,74,2.0,5.0,72,0.00,,,0.00,,2014-03-09 15:22:00,
2014-03-09 10:44:00,37.0,29.0,30.37,ENE,74,3.0,5.0,72,0.00,,,0.00,,2014-03-09 15:44:00,
2014-03-09 10:54:00,38.0,29.0,30.38,ENE,59,3.0,6.0,71,0.00,,,0.00,,2014-03-09 15:54:00,
2014-03-09 11:13:00,38.0,29.0,30.39,ENE,75,4.0,6.0,70,0.00,,,0.00,,2014-03-09 16:13:00,
2014-03-09 11:23:00,39.0,29.0,30.38,East,93,2.0,7.0,68,0.00,,,0.00,,2014-03-09 16:23:00,
2014-03-09 11:43:00,40.0,30.0,30.38,ESE,121,2.0,7.0,67,0.00,,,0.00,,2014-03-09 16:43:00,
2014-03-09 11:53:00,40.0,30.0,30.37,East,84,2.0,6.0,67,0.00,,,0.00,,2014-03-09 16:53:00,
2014-03-09 12:12:00,41.0,30.0,30.37,West,281,2.0,7.0,64,0.00,,,0.00,,2014-03-09 17:12:00,
2014-03-09 12:22:00,41.0,31.0,30.36,North,11,0.0,5.0,66,0.00,,,0.00,,2014-03-09 17:22:00,
2014-03-09 12:42:00,42.0,31.0,30.36,NNW,327,1.0,5.0,64,0.00,,,0.00,,2014-03-09 17:42:00,
2014-03-09 12:52:00,43.0,31.0,30.34,SE,140,2.0,7.0,63,0.00,,,0.00,,2014-03-09 17:52:00,
2014-03-09 13:11:00,43.0,31.0,30.33,NW,306,1.0,7.0,62,0.00,,,0.00,,2014-03-09 18:11:00,
2014-03-09 13:22:00,43.0,30.0,30.32,East,90,2.0,7.0,61,0.00,,,0.00,,2014-03-09 18:22:00,
2014-03-09 13:42:00,44.0,32.0,30.32,ESE,105,2.0,7.0,63,0.00,,,0.00,,2014-03-09 18:42:00,
2014-03-09 13:52:00,44.0,32.0,30.31,ENE,57,2.0,7.0,62,0.00,,,0.00,,2014-03-09 18:52:00,
2014-03-09 14:11:00,46.0,32.0,30.30,WNW,287,0.0,5.0,59,0.00,,,0.00,,2014-03-09 19:11:00,
2014-03-09 14:22:00,47.0,33.0,30.29,SSW,202,2.0,5.0,58,0.00,,,0.00,,2014-03-09 19:22:00,
2014-03-09 14:42:00,47.0,33.0,30.27,SSW,206,3.0,6.0,57,0.00,,,0.00,,2014-03-09 19:42:00,
2014-03-09 14:52:00,47.0,33.0,30.27,SSW,200,4.0,7.0,57,0.00,,,0.00,,2014-03-09 19:52:00,
2014-03-09 15:11:00,48.0,34.0,30.26,WNW,293,2.0,7.0,57,0.00,,,0.00,,2014-03-09 20:11:00,
2014-03-09 15:22:00,49.0,34.0,30.25,SSW,205,2.0,7.0,55,0.00,,,0.00,,2014-03-09 20:22:00,
2014-03-09 15:42:00,49.0,34.0,30.24,South,171,3.0,8.0,57,0.00,,,0.00,,2014-03-09 20:42:00,
2014-03-09 15:52:00,50.0,34.0,30.24,NNW,331,1.0,5.0,55,0.00,,,0.00,,2014-03-09 20:52:00,
2014-03-09 16:12:00,51.0,36.0,30.24,WNW,283,2.0,6.0,57,0.00,,,0.00,,2014-03-09 21:12:00,
2014-03-09 16:22:00,51.0,36.0,30.23,SSW,212,2.0,8.0,56,0.00,,,0.00,,2014-03-09 21:22:00,
2014-03-09 16:43:00,52.0,35.0,30.22,SW,227,2.0,5.0,52,0.00,,,0.00,,2014-03-09 21:43:00,
2014-03-09 16:53:00,52.0,35.0,30.21,West,259,2.0,7.0,53,0.00,,,0.00,,2014-03-09 21:53:00,
2014-03-09 17:13:00,52.0,36.0,30.19,SW,229,2.0,7.0,54,0.00,,,0.00,,2014-03-09 22:13:00,
2014-03-09 17:23:00,51.0,35.0,30.19,South,179,3.0,7.0,54,0.00,,,0.00,,2014-03-09 22:23:00,
2014-03-09 17:43:00,50.0,35.0,30.18,SW,229,4.0,9.0,56,0.00,,,0.00,,2014-03-09 22:43:00,
2014-03-09 17:52:00,50.0,35.0,30.18,South,178,2.0,5.0,56,0.00,,,0.00,,2014-03-09 22:52:00,
2014-03-09 18:22:00,50.0,35.0,30.18,SW,219,2.0,5.0,57,0.00,,,0.00,,2014-03-09 23:22:00,
2014-03-09 18:43:00,49.0,34.0,30.18,SW,217,2.0,6.0,57,0.00,,,0.00,,2014-03-09 23:43:00,
2014-03-09 18:53:00,49.0,35.0,30.19,SW,229,0.0,4.0,59,0.00,,,0.00,,2014-03-09 23:53:00,
2014-03-09 19:12:00,48.0,35.0,30.19,SW,217,0.0,3.0,61,0.00,,,0.00,,2014-03-10 00:12:00,
2014-03-09 19:22:00,47.0,35.0,30.19,SW,215,0.0,1.0,63,0.00,,,0.00,,2014-03-10 00:22:00,
2014-03-09 19:42:00,46.0,35.0,30.18,SSW,193,0.0,3.0,65,0.00,,,0.00,,2014-03-10 00:42:00,
2014-03-09 19:52:00,45.0,34.0,30.17,SSW,195,0.0,2.0,66,0.00,,,0.00,,2014-03-10 00:52:00,
2014-03-09 20:12:00,44.0,34.0,30.17,SSE,158,0.0,1.0,67,0.00,,,0.00,,2014-03-10 01:12:00,
2014-03-09 20:22:00,43.0,34.0,30.17,SSE,168,0.0,2.0,70,0.00,,,0.00,,2014-03-10 01:22:00,
2014-03-09 20:42:00,41.0,34.0,30.18,WNW,301,0.0,1.0,75,0.00,,,0.00,,2014-03-10 01:42:00,
2014-03-09 20:52:00,41.0,34.0,30.18,WNW,301,0.0,0.0,75,0.00,,,0.00,,2014-03-10 01:52:00,
2014-03-09 21:11:00,40.0,33.0,30.17,WNW,288,0.0,1.0,75,0.00,,,0.00,,2014-03-10 02:11:00,
2014-03-09 21:22:00,39.0,32.0,30.17,WNW,288,0.0,0.0,76,0.00,,,0.00,,2014-03-10 02:22:00,
2014-03-09 21:42:00,38.0,32.0,30.17,WNW,288,0.0,0.0,79,0.00,,,0.00,,2014-03-10 02:42:00,
2014-03-09 21:52:00,38.0,32.0,30.18,WSW,240,0.0,1.0,80,0.00,,,0.00,,2014-03-10 02:52:00,
2014-03-09 22:11:00,38.0,32.0,30.17,WSW,240,0.0,0.0,80,0.00,,,0.00,,2014-03-10 03:11:00,
2014-03-09 22:22:00,37.0,32.0,30.17,WSW,240,0.0,0.0,81,0.00,,,0.00,,2014-03-10 03:22:00,
2014-03-09 22:43:00,37.0,32.0,30.17,WSW,240,0.0,0.0,81,0.00,,,0.00,,2014-03-10 03:43:00,
2014-03-09 22:54:00,37.0,32.0,30.17,WSW,240,0.0,0.0,83,0.00,,,0.00,,2014-03-10 03:54:00,
2014-03-09 23:13:00,37.0,32.0,30.17,WSW,240,0.0,0.0,83,0.00,,,0.00,,2014-03-10 04:13:00,
2014-03-09 23:23:00,37.0,33.0,30.17,WSW,240,0.0,0.0,84,0.00,,,0.00,,2014-03-10 04:23:00,
2014-03-09 23:43:00,36.0,32.0,30.16,WSW,240,0.0,1.0,84,0.00,,,0.00,,2014-03-10 04:43:00,
2014-03-09 23:54:00,35.0,31.0,30.16,WSW,240,0.0,0.0,85,0.00,,,0.00,,2014-03-10 04:54:00,